Location: Launois
(49.6535°N, 4.5395°E)
Time: 03:04:56
(UTC+00:00)

Cosmos 1763 Rocket - Pass Details

Date: 23 May 2024
Orbit: 730 x 778 km, 74.0° (Epoch: 17 June)

Event Time Altitude Azimuth Distance (km) Brightness Sun altitude
Rises 00:49:03 0° 331° (NNW) 3,272 7.4 -18.0°
Reaches altitude 10° 00:51:33 10° 324° (NW) 2,339 6.5 -17.9°
Maximum altitude 00:56:31 41° 256° (WSW) 1,113 4.1 -17.6°
Enters shadow 00:58:23 30° 211° (SSW) 1,353 4.2 -17.5°
